Dewpoint
53 53 53 53 53 54 54 54 54 54 55 55 55 55 55 55 56 55 55 55 55 55 55 56 56 56 56 56 56 56 56 53 51 49 45 46 52 56 57 66 66 68 63 55 50 51 48 46 44 44 44 46 49 50 54 56 54 52 52 50 49 50 50 50 49 47 50 49 52 58 57 53 51 54 56 58 57 58 59 60 60 60 59 58 60 63 63 65
53 53 54 54 53 54 54 54 54 55 55 55 54 55 55 55 55 55 55 55 55 55 56 56 56 56 55 55 56 56 55 52 50 48 47 48 58 61 63 63 66 69 64 50 45 48 46 44 44 45 44 45 49 49 52 52 54 50 50 50 50 50 52 52 50 50 54 51 51 53 55 51 51 55 56 55 56 56 56 57 58 58 59 59 59 61 62 63
54 54 54 53 54 54 54 54 54 55 55 55 55 55 55 55 55 56 55 55 55 55 56 56 55 55 55 55 55 56 53 50 48 46 46 62 61 61 65 65 66 72 56 47 43 44 45 43 44 45 45 45 48 49 51 50 51 50 48 48 50 51 52 58 51 51 54 58 56 52 49 53 53 55 56 54 54 55 54 54 57 57 57 58 58 59 60 62
54 54 53 54 54 54 54 54 54 54 55 55 55 55 55 55 55 55 55 55 55 55 55 55 55 55 55 55 55 54 52 49 45 42 42 66 67 65 64 65 68 70 52 45 41 41 43 42 43 44 45 45 47 50 49 49 48 49 47 45 47 52 53 52 51 51 53 56 55 52 53 54 51 51 52 53 53 53 54 54 57 57 57 57 58 59 60 60
53 54 54 53 54 54 54 54 54 55 55 55 55 55 55 55 55 55 55 55 56 55 55 55 54 55 55 55 56 53 49 42 31 34 55 73 72 67 65 66 70 60 48 43 39 38 37 39 40 42 43 44 46 49 48 49 47 46 46 46 46 55 53 57 53 51 52 54 60 60 48 49 53 50 50 51 51 52 53 55 58 58 58 58 58 59 60 59
54 53 54 54 54 54 54 55 55 54 55 55 55 55 55 55 55 55 55 55 55 56 55 54 55 55 55 56 53 51 46 24 34 29 66 72 72 69 66 66 71 52 44 37 35 36 35 34 37 39 41 43 45 46 48 48 47 43 45 47 46 54 54 54 53 53 53 54 54 51 50 50 52 48 51 51 52 52 55 56 59 58 58 59 59 59 59 59
53 53 54 54 54 54 54 54 54 55 55 55 55 55 55 54 54 54 55 55 55 56 56 55 56 56 56 56 52 50 45 38 42 42 73 72 71 69 68 69 70 48 41 36 34 34 35 33 33 38 41 42 44 46 46 47 46 44 43 44 48 51 54 54 52 51 50 51 53 51 51 49 50 55 56 51 53 52 54 57 60 59 59 59 59 59 59 59
53 53 54 53 54 54 54 54 54 54 55 55 55 55 55 55 54 55 55 55 55 56 56 56 56 56 56 51 48 46 42 36 37 37 70 73 69 68 67 62 57 44 39 35 32 32 35 34 30 35 40 41 44 46 46 43 45 42 42 44 50 50 50 52 50 50 51 51 52 52 50 48 50 52 51 53 50 53 54 57 59 60 59 59 58 58 59 59
53 54 54 54 54 54 54 54 54 54 54 55 55 55 54 54 54 55 55 55 56 56 56 56 56 56 55 52 47 39 36 40 36 36 69 63 62 63 57 56 51 42 35 33 31 31 33 34 31 33 38 42 45 45 45 43 40 41 41 43 47 48 49 49 49 50 50 49 48 50 48 49 47 47 50 48 52 53 54 58 59 59 59 59 58 59 59 59
54 54 54 54 54 54 55 55 55 55 55 55 55 54 54 54 55 55 55 55 55 56 56 57 56 56 54 51 44 35 34 38 40 38 54 54 60 55 51 49 48 39 32 29 28 29 32 36 33 35 39 43 46 45 43 41 39 41 41 41 44 48 46 48 49 49 50 49 47 45 47 46 51 48 58 48 53 53 53 57 58 58 58 59 59 59 59 59
54 54 54 54 54 54 54 54 54 55 55 55 54 54 54 55 55 55 55 55 55 56 57 57 57 56 52 50 42 31 35 34 33 38 45 52 53 49 46 43 43 36 32 29 27 28 31 37 41 41 41 41 44 44 42 40 38 37 37 41 40 47 46 46 48 48 49 47 47 45 45 48 50 50 46 46 52 52 54 56 57 58 58 59 59 59 60 59
54 54 54 54 54 54 54 54 54 55 55 54 54 54 54 54 54 54 54 55 55 56 57 57 56 54 53 49 44 37 35 35 36 40 40 46 45 44 42 37 39 36 32 28 27 28 31 36 43 40 40 43 40 41 41 41 38 36 36 34 37 39 46 49 48 48 47 46 46 45 44 47 53 49 42 47 52 52 54 56 57 57 58 59 58 58 60 59
54 54 54 54 54 54 55 54 55 55 54 53 54 54 54 54 54 54 54 54 55 55 57 56 56 54 51 45 46 46 44 42 38 37 36 36 40 39 37 32 34 34 31 29 29 30 32 35 41 39 39 39 40 37 39 37 35 34 33 33 36 38 39 40 46 46 46 46 46 45 41 43 44 45 46 47 50 51 52 54 55 56 57 58 59 59 59 59
54 53 54 54 54 54 54 54 54 53 53 53 54 53 53 53 53 53 54 55 56 57 58 57 55 53 51 48 45 41 44 43 42 39 37 37 35 36 34 31 32 31 30 30 33 36 36 38 39 37 36 35 34 38 35 32 30 31 32 33 33 37 37 40 40 38 38 43 44 44 42 42 43 45 46 46 49 51 50 52 53 54 56 58 59 59 59 60
53 54 53 53 53 54 54 54 53 53 53 53 52 52 52 51 53 54 55 56 57 58 58 57 55 52 50 48 49 49 62 55 48 41 38 35 31 34 33 31 31 37 36 34 35 37 39 39 38 35 31 32 32 32 32 30 27 29 32 31 32 35 40 39 41 40 37 40 43 43 42 43 41 42 42 45 47 50 50 51 52 53 54 58 59 60 59 60
53 53 53 53 54 54 54 53 52 53 53 52 52 52 52 53 55 55 55 56 57 57 56 54 53 52 50 46 40 46 51 46 42 44 42 37 31 33 32 32 32 35 38 36 36 37 38 39 37 33 30 28 27 29 31 30 28 26 30 36 31 34 37 38 39 40 39 38 41 41 42 42 42 40 42 46 45 50 50 50 52 53 54 56 59 59 60 59
53 53 53 53 53 54 53 53 53 53 51 51 51 51 52 54 56 57 56 59 58 56 53 52 52 53 43 43 46 39 34 43 42 38 38 38 30 28 32 31 31 32 34 35 34 34 36 37 36 33 30 26 26 28 29 29 29 27 28 31 32 32 36 37 38 38 39 39 38 40 40 41 42 41 38 43 45 49 48 49 51 51 54 56 59 60 60 60
53 52 52 53 53 53 53 52 53 52 51 51 51 51 49 53 56 55 55 57 54 54 52 53 51 49 47 49 45 40 33 34 39 37 35 34 31 27 28 29 28 31 31 30 32 31 34 35 34 30 28 26 26 27 28 27 28 29 27 29 30 32 35 37 36 36 37 39 38 39 40 40 41 40 39 44 45 47 48 49 51 51 53 56 58 59 59 60
53 53 53 53 53 53 53 52 52 51 50 50 51 51 51 55 51 46 46 52 52 52 49 49 50 38 22 36 40 39 37 36 36 36 33 30 28 27 26 31 27 29 29 28 28 29 32 34 34 32 28 26 25 26 27 27 28 29 29 28 29 29 29 32 35 36 35 38 37 38 39 39 40 40 42 44 44 48 48 49 50 51 52 55 56 59 59 60
53 54 53 53 53 53 53 52 51 50 50 48 46 45 42 24 30 34 47 27 17 17 16 18 28 40 35 32 31 34 33 29 31 34 32 29 28 26 24 28 31 31 30 26 26 28 31 32 32 32 30 28 27 27 27 27 27 29 30 29 28 28 27 30 32 33 32 37 36 35 38 38 38 39 38 44 47 49 49 51 50 52 51 54 56 59 59 60
54 53 53 53 52 53 52 51 51 50 49 47 46 41 19 18 16 15 18 19 20 22 22 23 24 23 18 15 15 19 20 21 23 28 32 31 26 23 21 25 35 31 29 27 26 29 30 31 32 33 32 31 29 28 28 27 26 26 27 28 28 27 25 27 29 31 30 36 35 35 36 37 38 38 39 40 47 48 49 51 51 51 51 54 57 59 59 60
53 53 53 52 52 51 51 51 50 49 49 48 46 32 21 19 17 18 19 19 23 24 24 24 25 25 27 26 24 23 21 19 19 22 29 29 23 18 19 26 35 31 28 27 29 31 30 29 31 33 33 32 31 28 27 26 26 25 25 26 25 25 25 25 26 26 27 27 33 34 35 36 37 38 39 40 46 49 49 51 51 51 51 54 56 59 60 60
53 53 53 52 51 51 50 50 49 49 49 44 36 23 21 20 20 20 22 23 24 26 26 26 25 23 23 24 23 22 19 18 18 21 25 27 21 18 25 31 36 34 32 31 32 33 30 30 30 32 33 33 31 29 26 25 25 26 27 27 26 24 20 20 22 23 23 26 30 34 32 35 36 39 39 40 40 47 46 48 48 50 51 54 54 57 60 60
53 54 52 52 51 50 50 49 49 42 37 35 37 22 22 22 20 21 24 23 23 24 25 26 27 26 25 24 24 22 18 17 19 20 25 24 19 20 24 34 37 37 35 36 36 33 30 30 30 30 34 34 32 29 27 25 24 27 29 29 25 23 22 20 19 19 20 25 28 32 34 36 35 35 36 39 41 47 46 46 46 51 52 55 56 57 60 60
53 53 53 51 50 50 49 49 34 30 36 38 22 23 23 24 24 25 24 24 25 25 28 27 27 25 26 29 24 16 17 15 19 22 25 22 19 21 22 30 33 32 33 35 35 33 31 31 32 30 34 35 32 30 28 27 26 27 28 29 26 23 21 20 18 19 19 26 27 31 32 34 35 35 35 38 41 46 47 46 46 49 51 53 56 57 59 60
53 53 53 51 51 50 48 38 28 37 38 32 26 25 25 22 23 27 23 24 24 27 29 25 30 25 26 21 25 19 10 9 12 19 24 22 24 20 24 24 29 28 31 32 32 32 30 31 33 33 33 33 32 30 29 27 26 26 25 27 26 25 23 20 16 15 23 24 28 29 30 33 36 34 35 36 37 41 47 47 49 49 51 52 55 57 58 59
52 52 52 51 50 49 39 29 36 41 35 30 27 25 24 22 32 24 22 24 25 27 24 27 25 19 24 21 23 16 4 5 15 19 21 28 19 21 21 21 28 31 33 33 32 29 31 31 32 29 29 29 29 28 27 26 25 24 25 24 24 24 25 24 20 15 23 27 27 26 27 33 32 33 35 35 36 36 39 44 49 48 51 53 54 56 57 59
52 52 51 50 49 49 44 42 43 40 35 32 25 25 25 27 28 24 25 18 15 13 20 20 22 22 18 20 21 11 6 14 14 17 22 25 21 18 19 19 24 31 32 32 29 32 32 31 30 27 24 25 26 27 27 26 24 24 24 24 24 25 25 25 22 15 16 21 26 26 26 29 33 37 35 35 35 36 36 37 47 49 51 54 55 56 58 59
52 51 51 50 49 48 48 46 44 40 40 27 25 23 23 26 23 23 23 15 10 15 26 20 26 20 19 19 17 12 6 15 13 18 23 25 21 18 17 18 18 28 31 31 30 29 30 29 27 23 21 20 24 26 26 25 23 24 25 27 27 26 25 23 20 17 21 23 26 30 25 28 31 36 35 34 34 34 36 37 39 50 52 54 55 57 58 60
52 51 51 50 47 43 41 42 40 33 28 24 23 24 24 24 23 21 19 21 14 12 21 20 19 18 19 18 14 10 7 6 13 19 21 23 24 19 18 19 17 18 25 28 28 28 27 31 29 20 18 19 22 23 23 22 23 25 25 26 25 22 21 21 20 26 25 18 21 21 22 26 28 30 32 34 33 35 35 38 39 52 52 54 56 57 58 61
51 50 50 49 46 43 43 40 33 29 31 24 23 22 22 25 20 16 12 13 10 14 19 18 17 18 17 17 16 15 8 7 6 15 19 22 23 21 19 16 17 15 15 22 24 25 26 25 24 22 21 20 22 23 23 22 22 23 25 25 22 22 21 19 22 23 18 16 24 18 14 23 26 31 30 34 35 34 35 34 36 53 54 55 56 57 58 61
49 49 49 48 47 48 43 37 36 37 37 23 22 22 21 16 20 17 12 19 14 17 16 14 15 16 17 17 16 18 18 9 9 8 18 20 22 21 20 16 15 13 14 14 18 22 22 23 23 22 29 20 20 21 22 22 22 23 23 23 20 23 16 18 20 15 14 14 19 13 12 12 16 26 31 32 34 34 34 35 36 49 53 55 56 57 58 60
48 48 48 49 49 48 47 44 42 42 27 22 25 23 16 17 13 19 15 17 17 19 17 15 14 16 16 15 16 19 22 13 11 10 10 20 21 22 21 19 15 14 13 13 13 18 19 21 21 21 21 24 20 18 19 19 21 23 22 21 19 18 11 13 17 17 17 15 12 10 14 12 24 27 27 23 29 34 34 34 35 51 51 55 56 57 57 58
48 48 47 49 47 46 45 47 44 34 20 27 26 20 20 14 15 28 17 17 18 19 17 15 15 15 15 14 16 16 17 18 15 13 13 15 20 21 21 20 18 14 14 15 10 13 16 17 18 20 19 20 19 18 19 19 20 21 20 18 20 19 19 11 13 11 12 16 12 9 7 13 13 25 24 21 21 26 34 33 34 50 52 55 56 56 56 57
48 47 47 47 46 48 48 46 39 24 26 26 23 20 14 16 21 17 15 16 17 16 17 16 15 14 14 15 17 16 16 17 18 22 20 14 16 20 21 20 20 19 15 12 13 14 15 19 21 21 21 19 18 19 20 18 18 19 18 22 18 16 20 13 20 18 18 20 13 8 7 16 18 26 26 26 20 21 27 33 35 46 51 51 51 52 54 56
47 45 46 44 43 36 25 21 26 26 28 25 22 23 18 18 17 14 14 16 15 16 17 16 15 13 14 15 17 16 15 18 23 22 21 18 14 19 21 22 21 21 18 12 17 13 17 18 22 21 22 19 18 19 19 18 15 17 16 14 15 16 12 30 33 23 25 27 17 29 16 10 12 15 16 17 17 18 23 24 33 40 49 49 49 51 53 54
45 45 43 42 42 36 30 30 24 28 28 25 23 21 22 21 16 11 19 13 15 16 16 14 13 14 14 14 15 14 14 22 24 22 21 23 19 17 21 22 23 22 22 20 16 18 18 19 20 20 19 20 20 19 19 19 17 15 14 15 18 15 11 28 21 25 18 16 19 14 13 11 9 11 14 17 15 16 19 22 22 38 44 47 48 51 52 53
46 45 46 45 45 39 26 34 26 29 26 23 23 25 21 19 12 15 16 13 16 15 14 14 14 14 13 14 14 16 17 21 20 21 21 22 22 27 26 25 25 27 24 24 21 19 18 16 18 19 19 19 20 20 18 19 19 15 15 16 13 12 10 23 27 22 16 15 15 14 11 16 12 16 12 11 16 16 19 22 21 32 39 44 47 52 52 53
46 42 39 33 34 22 26 38 25 25 23 21 25 21 15 9 11 16 16 13 16 14 13 13 13 14 15 14 16 18 21 17 19 21 20 22 22 25 27 31 31 32 31 29 22 21 19 16 19 19 18 18 18 19 18 18 19 19 16 13 14 15 16 21 18 24 23 26 17 15 12 12 18 13 12 11 14 17 17 21 21 23 41 43 45 49 51 53
42 40 36 22 23 26 31 25 23 25 23 20 21 17 12 8 10 14 13 12 14 14 13 15 17 16 15 14 15 19 20 23 22 20 20 22 22 28 30 32 31 31 31 29 26 25 19 20 18 19 18 17 16 19 18 18 17 17 15 12 11 13 17 18 22 14 24 27 23 21 21 23 30 18 13 12 15 18 18 28 24 22 44 45 45 44 51 53
43 40 37 33 34 26 23 21 19 25 26 17 12 13 12 12 9 10 8 13 14 15 14 17 18 17 15 13 16 21 22 22 21 21 20 21 28 30 31 31 32 31 31 28 26 27 20 19 19 21 17 15 16 19 19 18 18 17 16 12 10 8 13 9 14 14 12 18 21 25 21 32 27 21 14 14 17 19 20 26 33 22 44 46 46 43 49 52
39 34 31 34 38 33 22 18 19 20 16 16 14 13 16 25 13 13 13 15 16 15 16 18 19 19 18 17 18 22 20 20 21 20 25 27 31 31 31 32 32 31 29 28 27 28 36 28 21 20 20 16 16 19 20 19 19 18 17 15 10 9 13 15 16 17 13 13 15 23 26 29 38 31 22 18 20 21 22 24 34 27 24 46 46 44 44 51
38 37 40 41 36 26 21 21 24 22 16 15 16 16 17 16 12 13 14 16 15 16 20 21 21 18 19 19 18 19 19 20 22 28 28 30 32 31 32 32 31 30 30 27 33 31 44 32 27 23 25 23 19 19 20 21 20 18 17 16 14 9 9 16 21 28 15 21 15 19 28 29 31 33 34 27 24 22 25 23 29 27 23 46 45 43 43 48
40 40 39 37 32 30 22 19 18 15 15 16 17 14 18 17 16 14 13 16 17 20 18 18 17 20 20 20 20 17 19 22 26 30 32 34 31 32 32 31 31 30 29 27 31 35 28 34 33 28 29 24 23 32 20 21 21 19 16 16 16 15 12 14 20 32 20 18 17 18 22 25 36 42 27 27 25 23 24 24 32 26 32 46 45 44 44 49
41 38 34 32 34 32 27 24 24 19 15 15 14 15 17 20 21 19 18 17 18 22 21 21 22 21 20 21 19 19 22 29 31 33 33 33 32 34 31 31 31 29 30 33 45 38 31 29 36 32 26 23 24 24 20 20 20 19 17 16 16 15 14 14 14 30 19 34 25 21 23 33 33 40 34 31 32 29 23 23 28 26 34 45 45 45 44 46
33 31 31 31 33 32 31 32 30 29 26 24 23 17 17 21 24 23 20 17 21 23 24 27 24 19 19 19 19 21 22 28 31 32 33 32 32 32 32 32 28 27 38 43 40 32 30 32 35 37 36 36 40 42 30 24 20 18 16 15 14 14 14 15 22 30 22 35 25 30 35 32 33 29 26 29 32 30 39 43 45 50 54 51 44 46 44 46
35 30 30 31 34 32 32 33 33 32 30 29 25 19 19 20 22 23 26 20 23 20 22 25 25 21 19 19 21 21 22 27 30 32 31 32 33 33 32 31 28 32 41 37 37 29 34 31 32 39 40 37 35 38 26 22 18 18 16 14 12 12 13 16 15 20 38 29 21 34 39 32 33 34 36 35 32 41 43 45 49 51 52 52 43 47 55 46
31 32 32 35 33 32 33 34 34 33 32 29 25 23 18 19 23 25 24 24 25 23 21 24 25 24 23 22 22 22 27 27 30 30 32 33 33 32 32 32 29 33 36 28 30 26 28 30 29 30 30 31 30 31 32 28 21 17 17 15 11 11 12 12 22 25 37 30 26 38 38 39 33 29 30 31 36 40 40 41 42 45 49 51 49 46 45 47
34 34 33 37 34 34 36 36 36 35 33 31 29 28 21 21 23 23 22 23 24 23 26 23 23 24 25 26 25 26 29 27 28 32 32 31 31 32 32 31 30 30 29 28 27 27 25 31 30 29 30 31 33 31 28 27 28 28 18 16 14 11 11 12 18 18 33 37 39 42 41 37 27 30 34 38 35 34 36 39 41 44 46 48 47 46 50 53
36 36 37 39 37 36 36 37 36 34 34 35 30 26 25 22 19 19 21 21 23 24 25 24 24 26 26 26 27 24 28 29 31 31 32 31 32 33 31 31 33 33 30 28 27 26 24 26 31 27 32 38 35 35 34 28 34 33 29 25 26 14 11 11 12 15 30 29 31 40 45 39 38 32 33 35 34 34 36 37 40 44 43 44 45 47 50 52
39 42 44 40 35 35 38 38 38 36 34 33 29 30 29 26 25 24 23 22 24 25 25 23 24 26 25 25 26 26 26 27 28 29 30 30 29 31 31 31 32 30 30 28 27 27 25 22 22 29 31 44 40 37 29 27 27 27 29 32 32 26 15 10 13 14 25 33 33 35 35 34 38 36 35 35 34 33 34 38 40 37 35 38 42 47 49 52
43 46 46 44 34 37 36 39 38 38 34 33 33 32 31 30 28 26 25 26 29 27 25 26 28 27 25 26 27 27 26 24 23 23 25 26 27 28 29 28 29 30 28 28 28 27 24 21 22 25 28 32 36 29 28 28 28 28 32 30 31 33 28 12 12 18 22 30 32 35 35 36 37 38 32 35 39 41 42 39 35 38 39 35 35 39 52 59